SCP
0 0 0 0 0 0 0 0 0 0 0 1 1 1 1 2 2 4 5 4 3 4 4 4 4 4 4 5 5 5 5 5 4 4 5 4 4 3 2 2 2 3 3 4
0 0 0 0 0 0 0 0 0 0 1 1 1 1 1 2 3 4 5 5 4 4 5 5 5 5 5 5 5 6 6 5 5 5 5 5 4 3 3 3 3 3 3 3
0 0 0 0 0 0 0 0 0 0 1 1 1 1 2 3 4 3 4 5 4 4 5 5 6 6 5 5 5 6 6 6 5 5 5 5 4 4 4 4 3 3 3 3
0 0 0 0 0 0 0 0 0 0 1 1 1 1 2 3 3 3 4 5 4 3 3 5 6 6 6 5 5 6 6 6 5 5 4 4 4 4 5 5 5 4 3 3
0 0 0 0 0 0 0 0 0 0 0 0 0 1 2 3 3 4 4 5 4 3 3 5 7 6 6 5 4 5 6 6 5 5 5 5 5 5 5 6 7 6 4 3
0 0 0 0 0 0 0 0 0 0 0 0 0 1 1 2 3 4 4 4 4 4 5 6 7 6 6 7 6 5 5 6 6 6 7 7 7 7 7 7 8 7 5 4
0 0 0 0 0 0 0 0 0 0 1 1 0 1 2 2 3 4 4 4 4 6 6 6 6 5 6 8 8 7 6 6 6 7 8 10 11 11 10 8 7 6 5 4
0 0 0 0 0 0 0 0 0 0 0 1 1 1 2 2 3 3 3 3 4 6 6 5 5 5 6 7 8 9 8 7 7 8 10 12 14 14 13 9 7 6 5 4
0 0 0 0 0 0 0 0 0 0 0 0 1 2 2 3 3 3 2 2 3 5 5 5 7 8 7 7 7 7 7 7 8 9 10 12 14 16 15 11 8 6 5 5
0 0 0 0 0 0 0 0 0 0 0 0 1 2 3 3 3 3 2 2 3 4 5 6 8 10 9 8 7 7 7 7 7 8 9 10 12 14 15 13 9 7 6 5
0 0 0 0 0 0 0 0 0 0 0 0 1 1 2 3 3 3 3 3 3 4 5 5 6 8 8 7 7 7 7 7 7 7 7 7 8 10 11 11 11 9 7 6
0 0 0 0 0 0 0 0 0 0 0 0 1 1 3 3 4 4 3 3 3 3 4 4 5 6 6 6 7 8 9 9 7 7 6 6 6 6 7 8 9 10 8 6
0 0 0 0 0 0 0 0 0 0 0 0 1 2 2 3 4 4 3 3 3 3 3 4 5 5 5 6 8 10 11 11 9 8 7 7 7 6 5 4 5 7 6 6
0 0 0 0 0 0 0 0 0 0 0 1 1 2 2 3 3 3 4 3 3 3 3 3 5 6 6 7 9 12 14 14 12 10 10 10 9 7 5 4 4 4 4 4
0 0 0 0 0 0 0 0 0 0 1 1 1 2 3 3 3 3 4 4 3 2 2 3 5 6 7 7 10 13 16 16 15 13 13 12 10 8 6 5 4 4 4 4
0 0 0 0 0 0 0 0 0 0 0 1 1 2 3 3 3 3 4 4 3 2 2 3 5 7 7 8 10 13 16 18 18 18 17 15 12 9 8 6 5 5 4 4
0 1 0 0 0 0 0 0 0 0 0 1 1 2 3 3 3 4 4 4 3 3 3 4 6 7 7 8 9 11 14 17 19 21 20 16 13 11 10 8 6 5 5 5
1 1 1 1 0 0 1 1 1 0 0 1 1 2 3 3 4 5 5 5 5 5 4 5 6 7 6 7 8 8 11 15 19 21 19 15 13 12 11 9 7 7 7 7
0 1 1 1 0 0 1 1 1 1 1 2 2 3 3 3 4 5 5 6 7 8 7 7 6 6 6 6 7 8 9 13 16 17 15 13 12 12 12 10 8 8 9 9
0 1 1 1 0 0 0 0 1 1 1 2 3 4 4 4 4 4 4 5 7 8 9 8 7 6 6 6 7 9 10 13 15 14 13 12 11 11 11 11 11 12 11 10
1 1 1 1 1 1 0 0 1 1 1 2 3 3 4 4 4 4 4 4 5 7 8 8 7 6 6 6 8 12 15 16 17 14 11 10 9 9 11 15 18 18 16 13
1 1 1 1 1 1 1 2 2 2 2 1 2 2 2 3 4 4 4 4 5 6 7 6 6 5 5 7 11 17 21 22 19 14 9 7 6 6 9 16 22 24 21 17
1 1 1 1 2 2 3 3 3 2 2 1 1 2 2 3 4 5 5 5 5 6 6 5 4 4 6 11 16 21 23 23 18 12 8 7 6 5 7 13 22 25 23 19
1 1 1 1 2 2 2 3 2 2 1 1 2 3 4 4 5 5 5 5 5 6 5 5 7 10 14 19 21 21 20 18 15 12 9 8 6 5 7 12 18 22 21 18
1 1 1 2 2 2 2 2 2 2 2 2 3 4 5 6 5 4 4 4 5 5 6 9 14 19 23 25 25 22 17 13 13 12 10 8 6 5 7 10 12 14 14 12
1 1 1 2 2 2 2 3 3 3 2 2 3 4 5 6 6 4 4 4 4 4 7 12 18 22 25 26 27 24 17 12 12 13 11 8 6 5 6 8 7 7 7 6
Wind_Speed
10 8 6 6 6 7 7 5 2 1 0 1 3 6 9 9 8 8 9 9 8 7 8 7 6 6 7 7 6 5 4 3 2 1 1 1 1 1 1 1 1 0 0 1
9 8 7 6 7 8 6 4 3 1 1 2 2 3 4 7 9 8 9 9 9 9 9 7 7 7 7 7 6 6 4 3 2 1 1 1 1 1 1 1 1 0 1 1
9 6 6 6 6 6 6 4 4 3 3 4 4 3 5 6 8 9 9 9 9 9 9 9 7 7 7 7 7 5 4 4 2 2 1 0 1 0 0 0 0 0 1 1
9 8 7 7 6 6 5 7 6 5 5 4 4 2 4 7 8 10 9 9 9 9 9 10 9 7 6 7 8 6 5 4 3 2 2 1 1 1 1 1 1 1 1 1
9 7 7 7 6 6 5 7 8 7 6 5 4 2 3 5 7 9 9 9 9 9 8 9 9 8 6 7 8 8 6 5 4 2 2 1 0 1 0 0 1 1 1 0
11 8 7 7 6 6 6 8 8 8 6 5 7 4 5 6 7 8 9 9 9 8 9 8 8 7 6 6 7 8 7 5 4 3 2 2 1 2 0 1 0 1 1 0
12 11 8 6 7 6 7 6 5 4 4 5 6 4 5 7 7 8 10 10 10 8 8 8 8 8 7 6 6 7 7 6 5 4 3 2 2 2 1 1 1 2 1 0
9 8 8 7 8 7 7 6 6 6 5 5 4 2 5 8 9 9 10 10 9 10 9 8 8 8 7 7 6 7 7 5 5 4 4 3 2 2 1 1 2 1 1 1
8 7 7 7 7 8 8 7 9 7 7 6 2 2 5 9 9 10 10 10 9 9 9 8 7 7 7 6 6 7 7 6 4 4 3 3 3 2 1 1 1 1 1 1
10 8 7 6 8 9 9 8 7 7 5 6 2 1 0 4 6 7 8 8 8 9 9 8 6 6 5 6 6 5 6 6 5 4 3 3 3 2 2 1 1 1 1 1
9 9 9 8 7 7 7 8 7 7 8 8 2 0 2 4 5 7 8 8 7 7 8 8 7 6 5 5 5 5 4 5 5 4 4 3 3 2 1 1 0 1 0 1
7 8 8 9 6 7 8 9 8 7 7 8 4 1 3 3 4 5 8 9 7 5 6 7 7 6 5 4 4 4 3 3 3 3 3 2 2 2 1 1 0 0 1 1
6 7 8 8 6 6 7 8 8 9 7 7 6 2 4 4 4 5 8 8 7 5 5 5 5 5 4 3 3 3 2 2 3 2 2 2 2 2 1 1 1 1 1 1
6 8 9 9 7 7 8 8 9 9 6 6 3 2 4 2 2 3 7 8 7 6 4 4 5 5 4 3 3 2 1 2 2 2 2 2 2 2 1 1 1 1 1 1
7 9 10 10 11 10 8 8 9 9 8 7 3 2 4 3 2 4 6 7 6 6 4 4 5 4 4 4 3 2 2 2 1 1 2 2 2 1 1 1 1 1 1 1
7 8 9 11 11 11 10 9 8 9 7 7 3 1 4 3 2 5 6 5 5 4 4 3 4 4 3 3 3 2 2 2 1 1 1 1 2 2 2 2 1 1 1 1
6 7 9 11 11 12 11 8 7 8 7 6 2 2 4 2 4 5 5 4 4 4 4 3 3 3 3 3 2 2 2 2 2 1 2 2 2 2 2 2 2 1 1 1
7 6 7 10 10 13 8 6 6 6 6 4 1 3 4 5 6 6 6 5 4 4 3 3 2 2 2 3 2 1 1 2 2 2 2 2 3 3 2 2 2 2 2 2
7 6 8 8 9 10 7 5 4 5 4 4 2 2 3 3 5 7 7 6 4 4 4 3 2 2 3 2 2 1 1 1 1 2 2 2 2 2 2 3 2 2 2 2
9 8 8 9 11 10 3 2 3 6 2 4 3 2 2 1 0 4 6 6 5 5 3 3 3 4 3 3 1 0 1 1 1 2 2 2 2 2 3 3 2 2 2 3
9 9 10 11 11 6 2 3 4 5 2 6 5 4 4 4 4 6 6 6 5 5 4 4 3 3 2 1 1 0 1 1 2 2 2 2 2 3 4 3 3 3 3 4
8 7 7 8 10 5 4 2 3 4 4 4 5 4 5 5 6 7 7 5 4 3 3 3 3 2 2 2 1 1 2 2 2 2 3 3 3 4 4 3 3 4 3 4
5 3 3 3 2 2 4 5 5 3 2 3 4 4 4 4 5 5 5 4 3 2 2 2 1 1 2 2 2 2 3 3 3 3 3 4 4 4 4 3 4 3 3 3
2 3 2 2 1 2 3 3 4 4 4 3 4 3 4 3 3 3 3 3 2 2 2 1 1 1 2 2 2 2 3 3 4 4 4 4 4 4 3 2 3 2 2 2
6 5 4 3 1 1 2 3 3 3 3 2 2 2 3 2 2 2 2 2 2 2 2 2 2 2 2 2 3 3 3 3 4 4 4 5 5 3 2 2 2 2 1 1
5 5 5 3 4 3 3 3 3 3 3 4 4 2 2 2 2 2 1 1 1 2 1 1 2 2 2 2 2 3 3 3 4 5 5 5 4 3 2 2 1 1 1 2
Wind_Direction
240 246 255 267 269 271 286 306 336 64 113 174 145 154 160 166 162 154 150 149 147 149 145 148 151 146 139 135 136 136 140 133 148 159 174 187 199 216 144 123 105 96 276 282
250 247 258 267 278 284 292 296 312 322 279 234 173 152 159 171 157 154 153 154 154 153 150 152 152 149 145 142 141 141 145 141 161 164 184 183 166 236 122 52 122 159 253 287
244 254 260 257 271 290 293 289 271 254 253 258 208 177 169 187 163 154 156 156 155 155 155 156 155 153 153 151 149 148 145 140 150 139 132 91 106 353 49 80 112 327 308 322
251 249 253 262 272 283 285 288 279 268 254 249 254 187 191 188 169 159 156 156 153 153 155 155 157 157 158 157 151 142 144 140 149 155 156 209 161 206 229 218 148 241 238 260
252 243 250 259 271 276 285 286 284 276 261 269 271 237 167 174 174 168 160 155 151 151 151 153 152 151 156 157 151 146 144 146 154 168 157 193 274 266 292 348 69 260 234 265
261 253 251 258 259 263 272 275 280 279 272 254 253 238 169 179 163 155 149 150 146 147 145 143 141 143 150 149 150 147 147 153 160 165 171 192 229 262 302 312 286 258 239 191
248 244 240 241 260 256 263 275 289 294 272 257 251 249 142 149 141 148 145 142 142 144 140 140 141 148 150 149 146 141 145 155 164 171 180 188 219 256 235 277 279 287 287 237
259 247 239 235 245 260 260 260 267 281 288 289 247 183 130 137 127 129 129 133 139 144 141 141 147 151 151 147 149 145 144 157 170 176 180 183 201 224 226 246 284 293 314 340
271 254 239 236 246 254 266 264 272 273 272 279 301 53 123 120 120 123 131 134 136 138 135 137 140 146 150 147 154 159 152 155 163 173 187 179 189 214 243 244 257 305 329 339
271 282 275 256 248 243 259 279 289 284 284 277 275 301 186 126 128 131 137 139 140 140 136 134 132 132 140 149 158 152 154 160 168 167 186 180 189 212 229 220 252 296 325 349
265 272 272 268 256 265 263 267 276 286 290 294 283 196 165 209 174 154 141 131 132 137 140 142 143 143 144 145 142 143 150 155 160 168 185 185 165 182 179 154 266 307 320 342
261 267 271 267 267 278 279 278 281 283 289 296 296 138 160 190 144 140 132 126 128 132 135 139 140 140 142 139 138 137 142 142 138 149 161 164 150 149 163 144 103 29 60 48
294 274 271 264 255 266 270 278 281 282 279 286 289 113 121 96 94 123 124 126 128 127 134 132 129 129 136 131 126 130 145 143 131 123 137 132 111 99 79 76 82 83 76 39
278 267 273 275 279 272 265 275 281 278 279 284 287 155 121 86 104 118 122 125 128 123 119 126 123 130 130 123 125 129 141 127 123 131 157 141 141 148 157 118 122 122 132 164
270 269 272 277 278 279 281 287 287 283 279 275 286 81 108 129 175 121 111 113 116 118 128 124 126 132 142 145 138 138 145 120 112 133 160 153 153 163 160 142 151 153 198 212
257 275 275 274 271 275 273 266 265 274 276 274 281 21 114 137 100 110 114 115 119 117 121 120 132 139 148 142 142 151 157 148 137 171 181 172 179 175 179 195 187 185 209 239
267 265 272 273 273 270 263 264 261 272 277 277 277 108 124 112 102 110 105 108 109 109 101 92 110 131 138 142 138 164 166 154 163 199 201 197 207 202 195 219 202 204 216 224
266 276 274 272 273 267 280 290 280 278 290 294 127 118 129 130 116 110 108 97 84 82 83 78 79 110 125 131 137 173 190 175 189 210 218 216 212 213 205 216 228 222 223 228
264 258 266 273 272 270 270 285 312 306 307 345 50 75 68 80 108 96 84 86 82 72 70 69 68 65 75 86 131 160 215 202 220 230 231 232 227 227 231 228 230 235 239 249
231 238 251 262 268 268 274 300 311 293 285 3 12 30 35 87 202 91 77 76 72 72 75 62 58 58 66 37 37 77 297 291 288 280 270 263 244 236 239 235 233 231 232 243
232 227 240 255 263 267 306 286 280 277 38 16 6 20 45 53 62 83 75 67 73 69 62 68 71 63 55 33 23 311 303 318 332 327 309 287 261 250 239 227 229 229 232 241
258 246 244 256 260 265 354 337 16 58 40 14 13 35 63 71 88 90 84 75 77 75 67 57 65 62 44 29 28 342 324 327 329 315 300 288 275 269 252 222 232 233 231 238
263 291 286 296 302 16 32 58 58 51 40 14 16 35 64 66 84 89 91 86 72 69 66 57 58 54 40 26 11 348 336 329 310 295 287 282 273 264 258 238 235 234 231 245
292 340 298 266 247 352 5 25 52 37 26 7 357 12 63 58 65 73 82 80 62 43 37 11 17 33 23 9 355 351 331 322 308 294 292 283 275 267 261 249 247 243 246 247
317 304 292 277 341 330 345 10 25 29 6 341 336 8 66 68 63 58 61 69 55 31 9 3 7 9 4 4 352 351 337 319 307 299 291 283 275 273 260 243 260 261 258 224
290 302 301 325 356 332 349 358 356 354 336 342 350 3 39 59 47 45 41 39 23 348 9 6 1 352 3 360 341 334 327 322 309 299 292 286 278 266 258 231 230 52 181 162